date,Euros,�s 
31-Aug-12,136.20362,107.45
30-Sep-12,134.57038,107.45
31-Oct-12,133.162785,107.45
30-Nov-12,133.6678,107.45
31-Dec-12,132.27095,107.45
31-Jan-13,128.94,107.45
28-Feb-13,124.57753,107.45
31-Mar-13,125.00733,107.45
30-Apr-13,129.42625,110.15
31-May-13,129.723655,110.15
30-Jun-13,129.3161,110.15
31-Jul-13,127.774,110.15
31-Aug-13,128.313735,110.15
30-Sep-13,130.891245,110.15
31-Oct-13,129.943955,110.15
30-Nov-13,131.49707,110.15
31-Dec-13,131.596205,110.15
31-Jan-14,133.248455,110.15
28-Feb-14,133.52383,110.15
31-Mar-14,132.411315,110.15
30-Apr-14,137.13375,113.1
31-May-14,138.73977,113.1
30-Jun-14,140.65116,113.1
31-Jul-14,142.63041,113.1
31-Aug-14,141.85002,113.1
30-Sep-14,142.94709,113.1
31-Oct-14,143.38818,113.1
30-Nov-14,143.02626,113.1
31-Dec-14,143.47866,113.1
31-Jan-15,147.53895,113.1
28-Feb-15,152.71893,113.1
31-Mar-15,156.36075,113.1
30-Apr-15,160.66032,115.95
31-May-15,160.61394,115.95
30-Jun-15,160.927005,115.95
31-Jul-15,163.941705,115.95
31-Aug-15,162.37638,115.95
30-Sep-15,158.445675,115.95
31-Oct-15,158.352915,115.95
30-Nov-15,164.27796,115.95
31-Dec-15,159.651555,115.95
31-Jan-16,153.714915,115.95
29-Feb-16,149.45955,115.95
31-Mar-16,148.520355,115.95
30-Apr-16,150.58046,119.3
31-May-16,153.25278,119.3
30-Jun-16,150.86678,119.3
31-Jul-16,141.77612,119.3
31-Aug-16,139.42591,119.3
30-Sep-16,139.84346,119.3
31-Oct-16,133.4967,119.3
30-Nov-16,137.58869,119.3
31-Dec-16,141.22734,119.3
31-Jan-17,138.54309,119.3
28-Feb-17,139.96276,119.3
31-Mar-17,137.76764,119.3
30-Apr-17,144.28954,122.3
31-May-17,143.04208,122.3
30-Jun-17,139.45869,122.3
31-Jul-17,137.96663,122.3
